Weather History for Middletown, PA

Change the Weather History Date:

Wednesday, April 10, 2013

  Actual Average Record
Temperature  
Mean Temperature 70 °F 50 °F  
Max Temperature 85 °F 60 °F 86 °F (1922)
Min Temperature 55 °F 40 °F 26 °F (1985)
Degree Days  
Heating Degree Days 0 15  
Month to date heating degree days 155 165  
Since 1 July heating degree days 4755 4876  
Cooling Degree Days 5 0  
Month to date cooling degree days 7 0  
Year to date cooling degree days 7 1  
Growing Degree Days 20 (Base 50)    
Moisture  
Dew Point 54 °F    
Average Humidity 59    
Maximum Humidity 86    
Minimum Humidity 32    
Precipitation  
Precipitation 0.10 in 0.11 in 1.88 in (1993)
Month to date precipitation 0.10 1.07  
Year to date precipitation 7.49 9.71  
Snow  
Snow 0.00 in - - ()
Month to date snowfall T  
Since 1 July snowfall 17.0  
Snow Depth 0.00 in    
Sea Level Pressure  
Sea Level Pressure 29.85 in    
Wind  
Wind Speed 6 mph (West)    
Max Wind Speed 38 mph    
Max Gust Speed 48 mph    
Visibility 10 miles    
Events Rain , Thunderstorm    
T = Trace of Precipitation, MM = Missing Value Source: NWS Daily Summary

Daily Weather History Graph

Daily Weather History Graph

Search for Another Location

Airport:

Trip Planner

Search our weather history database for the weather conditions in past years. The results will help you decide how hot, cold, wet, or windy it might be!

Date:

Astronomy

Apr. 10, 2013 Rise Set
Actual Time 6:36 AM EDT 7:40 PM EDT
Civil Twilight 6:08 AM EDT 8:08 PM EDT
Nautical Twilight 5:35 AM EDT 8:42 PM EDT
Astronomical Twilight 5:00 AM EDT 9:16 PM EDT
Moon 6:31 AM EDT (4/10) 8:14 PM EDT (4/10)
Length of Visible Light 14h 00m
Length of Day
13h 04m
Waxing Crescent, 0% of the Moon is Illuminated
Apr 10
Waxing Crescent
Apr 18
First Quarter
Apr 25
Full
May 2
Last Quarter
May 9
New

Hourly Weather History & Observations

Time (EDT) Temp. Heat Index Dew Point Humidity Pressure Visibility Wind Dir Wind Speed Gust Speed Precip Events Conditions
12:56 AM 64.0 °F - 52.0 °F 65% 29.87 in 10.0 mi Variable 3.5 mph - N/A   Partly Cloudy
1:56 AM 66.9 °F - 50.0 °F 54% 29.87 in 10.0 mi Calm Calm - N/A   Partly Cloudy
2:56 AM 60.1 °F - 51.1 °F 72% 29.86 in 10.0 mi Calm Calm - N/A   Clear
3:56 AM 59.0 °F - 50.0 °F 72% 29.87 in 10.0 mi Calm Calm - N/A   Clear
4:56 AM 55.9 °F - 51.1 °F 84% 29.88 in 10.0 mi ESE 3.5 mph - N/A   Clear
5:56 AM 59.0 °F - 50.0 °F 72% 29.89 in 10.0 mi Calm Calm - N/A   Scattered Clouds
6:56 AM 64.9 °F - 50.0 °F 58% 29.91 in 10.0 mi WNW 4.6 mph - N/A   Mostly Cloudy
7:56 AM 63.0 °F - 53.1 °F 70% 29.92 in 6.0 mi Calm Calm - N/A   Haze
8:56 AM 73.0 °F - 52.0 °F 48% 29.92 in 10.0 mi Calm Calm - N/A   Mostly Cloudy
9:56 AM 75.9 °F - 52.0 °F 43% 29.91 in 10.0 mi West 8.1 mph - N/A   Clear
10:56 AM 80.1 °F 80.0 °F 54.0 °F 40% 29.89 in 10.0 mi West 13.8 mph 21.9 mph N/A   Mostly Cloudy
11:56 AM 80.1 °F 80.1 °F 55.0 °F 42% 29.89 in 10.0 mi West 16.1 mph 24.2 mph N/A   Mostly Cloudy
12:56 PM 80.1 °F 80.2 °F 55.9 °F 43% 29.88 in 10.0 mi West 10.4 mph - N/A   Mostly Cloudy
1:56 PM 84.0 °F 82.9 °F 55.0 °F 37% 29.85 in 10.0 mi West 17.3 mph 27.6 mph N/A   Mostly Cloudy
2:56 PM 84.0 °F 82.9 °F 55.0 °F 37% 29.83 in 10.0 mi SW 12.7 mph 19.6 mph N/A   Mostly Cloudy
3:56 PM 84.9 °F 83.3 °F 54.0 °F 34% 29.80 in 10.0 mi SW 12.7 mph 19.6 mph N/A   Mostly Cloudy
4:56 PM 84.0 °F 82.5 °F 53.1 °F 34% 29.79 in 10.0 mi West 6.9 mph - N/A   Overcast
5:56 PM 84.0 °F - 52.0 °F 33% 29.76 in 10.0 mi West 13.8 mph 20.7 mph N/A   Overcast
6:56 PM 80.1 °F 79.9 °F 53.1 °F 39% 29.75 in 10.0 mi WNW 6.9 mph - N/A   Overcast
7:56 PM 72.0 °F - 55.0 °F 55% 29.74 in 8.0 mi Calm Calm - N/A   Overcast
8:56 PM 69.1 °F - 57.0 °F 65% 29.78 in 10.0 mi Calm Calm - N/A   Overcast
9:11 PM 75.2 °F - 53.6 °F 47% 29.84 in 10.0 mi NNW 29.9 mph 48.3 mph 0.00 in Rain , Thunderstorm Light Thunderstorms and Rain
9:22 PM 68.0 °F - 57.2 °F 68% 29.87 in 3.0 mi NNW 20.7 mph 47.2 mph 0.00 in Rain , Thunderstorm Light Thunderstorms and Rain
9:48 PM 64.4 °F - 57.2 °F 77% 29.87 in 10.0 mi WNW 6.9 mph - 0.10 in Rain Light Rain
9:56 PM 64.9 °F - 57.9 °F 78% 29.86 in 10.0 mi NNW 5.8 mph - 0.10 in   Overcast
10:56 PM 63.0 °F - 57.0 °F 81% 29.85 in 10.0 mi WNW 4.6 mph - N/A   Overcast
11:56 PM 64.0 °F - 57.9 °F 80% 29.88 in 10.0 mi Calm Calm - N/A   Overcast